Live-Position
3D-Globus wird geladen...
Über OneWeb SL0365
Group: 3 satellites
Beschreibung wird geladen...
Nächste Überflüge
Passes for default location (London). Set your location on the main map for personalized predictions.
Höhenverlauf
Loading altitude history...
No altitude history available
Zweizeiliger Elementsatz
1 49291U 21090N 26126.26003148 -.00000003 00000-0 -38627-4 0 9993
2 49291 87.9155 313.3247 0001788 86.5477 273.5861 13.19724635220890
Epoch: 6. Mai 2026 •
Age: 11 hours
Aktueller Status
Höhe 1187.5 km
Geschwindigkeit 7.26 km/s
Subsatellitenpunkt 13.81°N,
169.25°W
Startdatum 14. Okt. 2021
Alter 4.5 years
Typ internet
Startgruppe
Unknown Vehicle •
OneWeb Launch 11 •
36 satellites
OneWeb SL0332
49279
OneWeb SL0347 49280
OneWeb SL0349 49281
OneWeb SL0353 49282
OneWeb SL0356 49283
OneWeb SL0358 49284
OneWeb SL0359 49285
OneWeb SL0360 49286
OneWeb SL0361 49287
OneWeb SL0362 49288
OneWeb SL0363 49289
OneWeb SL0364 49290
OneWeb SL0366 49292
OneWeb SL0367 49293
OneWeb SL0368 49294
OneWeb SL0369 49295
OneWeb SL0370 49296
OneWeb SL0371 49297
OneWeb SL0372 49298
OneWeb SL0373 49299
...and 15 more
Technische Details
Klassifizierung Payload
Masse 148.00 kg
Trockenmasse 140.00 kg
Gesamtmasse 148.00 kg
Länge 1.30 m
Durchmesser 1.00 m
Spannweite 5.00 m
Form Trapezoid+2 pan
Hersteller ONEWUS
Bus-Typ ARROW
Phasenstatus In Orbit
Besitzer/Staat ONEWEBN/UK
Most Searched
Loading...